Regional Weather Roundup
Issued by NWS San Diego, CA

Home | Current Version | Previous Version | Text Only | Print | Product List | Glossary On
Versions: 1 2 3 4 5 6 7 8 9 10 11 12 13 14 15 16 17 18 19 20 21 22 23 24 25 26 27 28 29 30 31 32 33 34 35 36 37 38 39 40 41 42 43 44 45 46 47 48 49 50
000
ASUS46 KSGX 050211
RWRSGX

SAN DIEGO HOURLY WEATHER ROUNDUP
NATIONAL WEATHER SERVICE SAN DIEGO CA
700 PM PDT MON MAY 04 2015

NOTE: "FAIR" INDICATES FEW OR NO CLOUDS BELOW 12,000 FEET WITH NO
SIGNIFICANT WEATHER AND/OR OBSTRUCTIONS TO VISIBILITY.

CAZ042-043-060-061-PZZ750-775-050300-

GREATER SAN DIEGO AREA

CITY           SKY/WX    TMP DP  RH WIND       PRES   REMARKS
LINDBERGH FLD  MOCLDY    64  52  63 W7        29.98R
POINT LOMA       N/A     62  52  69 W12         N/A
NATIONAL CITY    N/A     64  54  70 NW9       29.97R
CHULA VISTA      N/A     63  54  74 W8        29.89R
IMPERIAL BEACH MOCLDY    64  52  64 W14       29.97R
BROWN FIELD    CLOUDY    60  51  72 W8G16     29.96R
MIRAMAR MCAS   CLOUDY    63  50  62 NW7       29.96R
MONTGOMERY FLD MOCLDY    62  51  67 W9        29.96R

$$

NORTH SAN DIEGO COUNTY

CITY           SKY/WX    TMP DP  RH WIND       PRES   REMARKS
CAMP PENDLETON PTCLDY    62  49  62 VRB7      29.94R
OCEANSIDE AP   MOCLDY    62  51  67 W9        29.94R
OCEANSIDE HBR    N/A     62  55  78 W10       29.98R
VISTA            N/A     61  54  77 SW3       29.94R
CARLSBAD       CLOUDY    61  52  72 VRB7      29.95R
DEL MAR          N/A     62  54  74 NW1       29.98R
LA JOLLA SCRIP   N/A    N/A N/A N/A CALM      29.94R
FALLBROOK        N/A     61  55  80 S6        29.93R
ESCONDIDO        N/A     62  54  74 W5        29.96R
SAN MARCOS       N/A     60  53  79 W1        29.93R
POWAY            N/A     62  53  73 CALM      29.97R

$$

EAST SAN DIEGO COUNTY

CITY           SKY/WX    TMP DP  RH WIND       PRES   REMARKS
RAMONA         CLOUDY    58  51  78 W14       29.95R
SANTEE LAKES     N/A     62  53  73 W1        29.95R
LA MESA          N/A     61  52  71 W10       29.90R
JAMUL            N/A     60  52  75 CALM      29.95R
DESCANSO N       N/A     54  49  84 CALM      29.81R
MT. LAGUNA OBS   N/A     52  38  58 NW6       29.59S
CAMPO            N/A     58  49  72 SW12      29.91R

$$

ORANGE COUNTY AND THE LOS ANGELES BASIN

CITY           SKY/WX    TMP DP  RH WIND       PRES   REMARKS
JOHN WAYNE AP  PTCLDY    62  49  62 SW8       29.93R
LAKE FOREST FR   N/A     62  48  59 W6        29.83R
SANTA ANA        N/A     66  51  57 SW3       29.88R
HUNTINGTON BCH   N/A     60  53  76 SW12      29.95R
FULLERTON      CLEAR     65  49  56 W7        29.92R
LONG BEACH     CLEAR     63  50  62 W12       29.93R
L.A. AP        PTCLDY    59  52  77 W16       29.94R
L.A. DOWNTOWN  CLEAR     61  50  67 VRB6      29.93R

$$

THE INLAND EMPIRE

CITY           SKY/WX    TMP DP  RH WIND       PRES   REMARKS
CORONA         CLEAR     65  50  58 W16       29.90R
CHINO          PTCLDY    66  49  54 W14       29.92R
ONTARIO        PTCLDY    65  49  56 W15       29.90R
SAN BERNARDINO CLEAR     66  46  48 SW10      29.91R
RIVERSIDE AP   CLEAR     66  49  54 W9        29.91R
RIV CYN CREST    N/A     67  57  72 NW3         N/A
MORENO VALLEY    N/A     66  55  66 NW6       29.87R
HORSETHIEF CYN   N/A     68  47  45 W3        29.86R
PERRIS           N/A     67  51  57 NW8         N/A
MENIFEE          N/A     68  55  63 SE7       29.96R
HEMET EAST       N/A     67  49  51 SW3       29.88R
FRENCH VALLEY  FAIR      63  50  63 S14       29.93R
TEMECULA         N/A     63  54  72 SW9       29.87R

$$

SAN BERNARDINO AND RIVERSIDE COUNTY MOUNTAINS

CITY           SKY/WX    TMP DP  RH WIND       PRES   REMARKS
BIG BEAR AP    CLEAR     48  27  43 W10G18    30.04R
PINE COVE        N/A     49  45  84 N3        29.84S

$$

SOUTHERN DESERT INCLUDING THE COACHELLA VALLEY

CITY           SKY/WX    TMP DP  RH WIND       PRES   REMARKS
PALM SPRINGS   PTCLDY    85  43  22 NW17G29   29.74R
THOUSAND PALMS   N/A     83  45  25 NW12      29.71S
PALM DESERT      N/A     86  47  25 CALM        N/A
THERMAL        CLEAR     86  43  22 SW8       29.69S
BLYTHE         CLOUDY    79  53  40 SE10      29.74R
IMPERIAL AP    CLEAR     84  50  30 SW13      29.71S
EL CENTRO NAS  PTCLDY    84  49  29 SW17      29.74R
YUMA AZ        MOCLDY    81  50  33 S14       29.77R THUNDER
MEXICALI       PTCLDY    81  50  34 SE12      29.74S

$$

UPPER DESERT

CITY           SKY/WX    TMP DP  RH WIND       PRES   REMARKS
VICTORVILLE AP CLEAR     72  39  30 S14       29.88R
HESPERIA         N/A     65  42  43 SW6       29.93R
APPLE VALLEY     N/A     66  36  33 SW7G25    29.95R
PALMDALE       CLEAR     67  38  34 SW21G26   29.87R
LANCASTER      CLEAR     67  34  29 SW25G32   29.86R
DAGGETT        PTCLDY    80  27  14 W23G33    29.77R
29 PALMS N     MOCLDY    78  33  19 SW24      29.84R
NEEDLES        CLOUDY    70  51  51 E6        29.81F

$$

REGIONAL REPORTS

CITY           SKY/WX    TMP DP  RH WIND       PRES   REMARKS
SANTA BARBARA  CLEAR     60  51  72 W9        29.92F
SANDBERG       CLEAR     59  42  53 SW9       29.97R
MT. WILSON       N/A     57  32  38 MISG        N/A
LAS VEGAS NV   CLOUDY    74  41  30 E15       29.78R
PHOENIX AZ     MOCLDY    76  48  37 W21G31    29.79R
TIJUANA        CLOUDY    61  48  63 W13       29.98R
ENSENADA NW      N/A     63  32  31 W12       29.93R

$$

OFFSHORE ISLANDS

CITY           SKY/WX    TMP DP  RH WIND       PRES   REMARKS
CATALINA ARPT  MOCLDY    52  47  83 W21       29.95R
SAN NICOLAS IS PTCLDY   N/A N/A N/A W21       29.96S

$$

MARINE AND OFFSHORE BUOY REPORTS

STATION/POSITION SKY/WX   TEMP    WIND        PRES    SWELL
                          AIR SEA DIR/SP/G            HT/PER/DIR
                          (F)     (DEG/KT/KT) (MB)    (FT/S/D)
TANNER BANKS               60 62  310/ 16/ 17 1014.5F   8/180/17
S CLEMENTE BASIN           60 64  300/ 16/ 17 1013.9S   5/180/17
SAN NICOLAS IS.               60                N/A     5/300/12
SO. S. ROSA ISLA           58 62  310/ 16/ 19 1013.9F   7/19
W. S. BARBARA CH           56 57  320/ 17/ 21 1014.0F   5/180/19
S. MONICA BASIN            59 62  280/ 16/ 17 1013.8F   3/210/19
S PEDRO CHANNEL               62                N/A     2/180/15
DANA POINT                    60                N/A     5/180/20
OCEANSIDE OFFSHR              63                N/A     5/190/18
TORREY PINES OTR              65                N/A     3/200/18
LA JOLLA 1                    67  310/  7/ 10 1013.9R
MISSION BAY BUOY              65                N/A     5/200/18
SAN DIEGO BAY                 69              1014.4R
POINT LOMA SOUTH              65                N/A     7/180/18

$$




USA.gov is the U.S. government's official web portal to all federal, state and local government web resources and services.